Time,TemperatureF,DewpointF,PressureIn,WindDirection,WindDirectionDegrees,WindSpeedMPH,WindSpeedGustMPH,Humidity,HourlyPrecipIn,Conditions,Clouds,dailyrainin,SolarRadiationWatts/m^2,SoftwareType,DateUTC
2013-04-14 00:03:00,47.0,45.0,-100.00,North,359,0.0,3.0,92,0.00,,,0.01,0.000000,,2013-04-14 04:03:00,
2013-04-14 00:33:00,45.0,43.0,-100.00,NW,326,0.0,2.0,93,0.00,,,0.01,0.000000,,2013-04-14 04:33:00,
2013-04-14 00:43:00,45.0,43.0,-100.00,NW,326,0.0,2.0,93,0.00,,,0.01,0.000000,,2013-04-14 04:43:00,
2013-04-14 00:53:00,45.0,43.0,-100.00,NW,326,0.0,2.0,93,0.00,,,0.01,0.000000,,2013-04-14 04:53:00,
2013-04-14 01:03:00,45.0,43.0,-100.00,NW,326,0.0,2.0,93,0.00,,,0.01,0.000000,,2013-04-14 05:03:00,
2013-04-14 01:32:00,45.0,43.0,-100.00,NNW,337,0.0,0.0,94,0.00,,,0.01,0.000000,,2013-04-14 05:32:00,
2013-04-14 01:43:00,45.0,43.0,-100.00,NNW,337,0.0,0.0,94,0.00,,,0.01,0.000000,,2013-04-14 05:43:00,
2013-04-14 01:53:00,45.0,43.0,-100.00,NNW,337,0.0,0.0,94,0.00,,,0.01,0.000000,,2013-04-14 05:53:00,
2013-04-14 02:02:00,45.0,43.0,-100.00,NNW,337,0.0,0.0,94,0.00,,,0.01,0.000000,,2013-04-14 06:02:00,
2013-04-14 02:32:00,44.0,42.0,-100.00,North,353,0.0,0.0,94,0.00,,,0.01,0.000000,,2013-04-14 06:32:00,
2013-04-14 02:42:00,44.0,42.0,-100.00,North,353,0.0,0.0,94,0.00,,,0.01,0.000000,,2013-04-14 06:42:00,
2013-04-14 02:53:00,44.0,42.0,-100.00,North,353,0.0,0.0,94,0.00,,,0.01,0.000000,,2013-04-14 06:53:00,
2013-04-14 03:03:00,44.0,42.0,-100.00,North,353,0.0,0.0,94,0.00,,,0.01,0.000000,,2013-04-14 07:03:00,
2013-04-14 03:33:00,43.0,41.0,-100.00,NW,323,0.0,0.0,94,0.00,,,0.01,0.000000,,2013-04-14 07:33:00,
2013-04-14 03:42:00,43.0,41.0,-100.00,NW,323,0.0,0.0,94,0.00,,,0.01,0.000000,,2013-04-14 07:42:00,
2013-04-14 03:52:00,43.0,41.0,-100.00,NW,323,0.0,0.0,94,0.00,,,0.01,0.000000,,2013-04-14 07:52:00,
2013-04-14 04:03:00,43.0,41.0,-100.00,NW,323,0.0,0.0,94,0.00,,,0.01,0.000000,,2013-04-14 08:03:00,
2013-04-14 04:33:00,43.0,41.0,-100.00,NNW,347,0.0,0.0,94,0.00,,,0.01,0.000000,,2013-04-14 08:33:00,
2013-04-14 04:43:00,43.0,41.0,-100.00,NNW,347,0.0,0.0,94,0.00,,,0.01,0.000000,,2013-04-14 08:43:00,
2013-04-14 04:52:00,43.0,41.0,-100.00,NNW,347,0.0,0.0,94,0.00,,,0.01,0.000000,,2013-04-14 08:52:00,
2013-04-14 05:03:00,43.0,41.0,-100.00,NNW,347,0.0,0.0,94,0.00,,,0.01,0.000000,,2013-04-14 09:03:00,
2013-04-14 05:33:00,42.0,40.0,-100.00,North,350,0.0,0.0,94,0.00,,,0.01,0.000000,,2013-04-14 09:33:00,
2013-04-14 05:43:00,42.0,40.0,-100.00,North,350,0.0,0.0,94,0.00,,,0.01,0.000000,,2013-04-14 09:43:00,
2013-04-14 05:54:00,42.0,40.0,-100.00,North,350,0.0,0.0,94,0.00,,,0.01,0.000000,,2013-04-14 09:54:00,
2013-04-14 06:03:00,42.0,40.0,-100.00,North,350,0.0,0.0,94,0.00,,,0.01,0.000000,,2013-04-14 10:03:00,
2013-04-14 06:33:00,41.0,39.0,-100.00,West,264,3.0,4.0,94,0.00,,,0.01,0.000000,,2013-04-14 10:33:00,
2013-04-14 06:43:00,41.0,39.0,-100.00,West,264,3.0,4.0,94,0.00,,,0.01,0.000000,,2013-04-14 10:43:00,
2013-04-14 06:53:00,41.0,39.0,-100.00,West,264,3.0,4.0,94,0.00,,,0.01,0.000000,,2013-04-14 10:53:00,
2013-04-14 07:02:00,41.0,39.0,-100.00,West,264,3.0,4.0,94,0.00,,,0.01,0.000000,,2013-04-14 11:02:00,
2013-04-14 07:33:00,42.0,41.0,-100.00,SE,133,0.0,4.0,95,0.00,,,0.00,10.000000,,2013-04-14 11:33:00,
2013-04-14 07:42:00,42.0,41.0,-100.00,SE,133,0.0,4.0,95,0.00,,,0.00,10.000000,,2013-04-14 11:42:00,
2013-04-14 07:53:00,42.0,41.0,-100.00,SE,133,0.0,4.0,95,0.00,,,0.00,10.000000,,2013-04-14 11:53:00,
2013-04-14 08:02:00,42.0,41.0,-100.00,SE,133,0.0,4.0,95,0.00,,,0.00,10.000000,,2013-04-14 12:02:00,
2013-04-14 08:32:00,53.0,52.0,-100.00,West,265,2.0,3.0,95,0.00,,,0.00,168.000000,,2013-04-14 12:32:00,
2013-04-14 08:42:00,53.0,52.0,-100.00,West,265,2.0,3.0,95,0.00,,,0.00,168.000000,,2013-04-14 12:42:00,
2013-04-14 08:52:00,53.0,52.0,-100.00,West,265,2.0,3.0,95,0.00,,,0.00,168.000000,,2013-04-14 12:52:00,
2013-04-14 09:02:00,53.0,52.0,-100.00,West,265,2.0,3.0,95,0.00,,,0.00,168.000000,,2013-04-14 13:02:00,
2013-04-14 09:33:00,62.0,55.0,-100.00,WSW,252,3.0,5.0,79,0.00,,,0.00,392.000000,,2013-04-14 13:33:00,
2013-04-14 09:43:00,62.0,55.0,-100.00,WSW,252,3.0,5.0,79,0.00,,,0.00,392.000000,,2013-04-14 13:43:00,
2013-04-14 09:52:00,62.0,55.0,-100.00,WSW,252,3.0,5.0,79,0.00,,,0.00,392.000000,,2013-04-14 13:52:00,
2013-04-14 10:02:00,62.0,55.0,-100.00,WSW,252,3.0,5.0,79,0.00,,,0.00,392.000000,,2013-04-14 14:02:00,
2013-04-14 10:32:00,68.0,53.0,-100.00,NNW,342,2.0,6.0,59,0.00,,,0.00,593.000000,,2013-04-14 14:32:00,
2013-04-14 10:42:00,68.0,53.0,-100.00,NNW,342,2.0,6.0,59,0.00,,,0.00,593.000000,,2013-04-14 14:42:00,
2013-04-14 10:53:00,68.0,53.0,-100.00,NNW,342,2.0,6.0,59,0.00,,,0.00,593.000000,,2013-04-14 14:53:00,
2013-04-14 11:03:00,68.0,53.0,-100.00,NNW,342,2.0,6.0,59,0.00,,,0.00,593.000000,,2013-04-14 15:03:00,
2013-04-14 11:05:00,67.0,54.0,-100.00,South,182,6.0,9.0,63,0.00,,,0.00,724.000000,,2013-04-14 15:05:00,
2013-04-14 11:34:00,67.0,54.0,-100.00,South,182,6.0,9.0,63,0.00,,,0.00,724.000000,,2013-04-14 15:34:00,
2013-04-14 11:44:00,67.0,54.0,-100.00,South,182,6.0,9.0,63,0.00,,,0.00,724.000000,,2013-04-14 15:44:00,
2013-04-14 11:53:00,67.0,54.0,-100.00,South,182,6.0,9.0,63,0.00,,,0.00,724.000000,,2013-04-14 15:53:00,
2013-04-14 12:33:00,73.0,55.0,-100.00,South,175,6.0,9.0,53,0.00,,,0.00,944.000000,,2013-04-14 16:33:00,
2013-04-14 12:43:00,73.0,55.0,-100.00,South,175,6.0,9.0,53,0.00,,,0.00,944.000000,,2013-04-14 16:43:00,
2013-04-14 12:53:00,73.0,55.0,-100.00,South,175,6.0,9.0,53,0.00,,,0.00,944.000000,,2013-04-14 16:53:00,
2013-04-14 13:02:00,73.0,55.0,-100.00,South,175,6.0,9.0,53,0.00,,,0.00,944.000000,,2013-04-14 17:02:00,
2013-04-14 13:33:00,71.0,51.0,-100.00,South,179,9.0,13.0,49,0.00,,,0.00,1033.000000,,2013-04-14 17:33:00,
2013-04-14 13:43:00,71.0,51.0,-100.00,South,179,9.0,13.0,49,0.00,,,0.00,1033.000000,,2013-04-14 17:43:00,
2013-04-14 13:53:00,71.0,51.0,-100.00,South,179,9.0,13.0,49,0.00,,,0.00,1033.000000,,2013-04-14 17:53:00,
2013-04-14 14:03:00,71.0,51.0,-100.00,South,179,9.0,13.0,49,0.00,,,0.00,1033.000000,,2013-04-14 18:03:00,
2013-04-14 14:33:00,71.0,49.0,-100.00,South,180,8.0,14.0,45,0.00,,,0.00,859.000000,,2013-04-14 18:33:00,
2013-04-14 14:43:00,71.0,49.0,-100.00,South,180,8.0,14.0,45,0.00,,,0.00,859.000000,,2013-04-14 18:43:00,
2013-04-14 14:54:00,71.0,49.0,-100.00,South,180,8.0,14.0,45,0.00,,,0.00,859.000000,,2013-04-14 18:54:00,
2013-04-14 15:04:00,71.0,49.0,-100.00,South,180,8.0,14.0,45,0.00,,,0.00,859.000000,,2013-04-14 19:04:00,
2013-04-14 15:33:00,71.0,45.0,-100.00,SSE,152,8.0,13.0,40,0.00,,,0.00,783.000000,,2013-04-14 19:33:00,
2013-04-14 15:43:00,71.0,45.0,-100.00,SSE,152,8.0,13.0,40,0.00,,,0.00,783.000000,,2013-04-14 19:43:00,
2013-04-14 15:53:00,71.0,45.0,-100.00,SSE,152,8.0,13.0,40,0.00,,,0.00,783.000000,,2013-04-14 19:53:00,
2013-04-14 16:03:00,71.0,45.0,-100.00,SSE,152,8.0,13.0,40,0.00,,,0.00,783.000000,,2013-04-14 20:03:00,
2013-04-14 16:33:00,72.0,48.0,-100.00,SSE,167,6.0,11.0,42,0.00,,,0.00,596.000000,,2013-04-14 20:33:00,
2013-04-14 16:43:00,72.0,48.0,-100.00,SSE,167,6.0,11.0,42,0.00,,,0.00,596.000000,,2013-04-14 20:43:00,
2013-04-14 16:53:00,72.0,48.0,-100.00,SSE,167,6.0,11.0,42,0.00,,,0.00,596.000000,,2013-04-14 20:53:00,
2013-04-14 17:02:00,72.0,48.0,-100.00,SSE,167,6.0,11.0,42,0.00,,,0.00,596.000000,,2013-04-14 21:02:00,
2013-04-14 17:33:00,71.0,47.0,-100.00,SSE,166,6.0,10.0,42,0.00,,,0.00,515.000000,,2013-04-14 21:33:00,
2013-04-14 17:43:00,71.0,47.0,-100.00,SSE,166,6.0,10.0,42,0.00,,,0.00,515.000000,,2013-04-14 21:43:00,
2013-04-14 17:53:00,71.0,47.0,-100.00,SSE,166,6.0,10.0,42,0.00,,,0.00,515.000000,,2013-04-14 21:53:00,
2013-04-14 18:03:00,71.0,47.0,-100.00,SSE,166,6.0,10.0,42,0.00,,,0.00,515.000000,,2013-04-14 22:03:00,
2013-04-14 18:33:00,69.0,49.0,-100.00,SSE,154,4.0,9.0,49,0.00,,,0.00,237.000000,,2013-04-14 22:33:00,
2013-04-14 18:44:00,69.0,49.0,-100.00,SSE,154,4.0,9.0,49,0.00,,,0.00,237.000000,,2013-04-14 22:44:00,
2013-04-14 18:53:00,69.0,49.0,-100.00,SSE,154,4.0,9.0,49,0.00,,,0.00,237.000000,,2013-04-14 22:53:00,
2013-04-14 19:02:00,69.0,49.0,-100.00,SSE,154,4.0,9.0,49,0.00,,,0.00,237.000000,,2013-04-14 23:02:00,
2013-04-14 19:33:00,67.0,53.0,-100.00,SSE,155,2.0,6.0,60,0.00,,,0.00,111.000000,,2013-04-14 23:33:00,
2013-04-14 19:43:00,67.0,53.0,-100.00,SSE,155,2.0,6.0,60,0.00,,,0.00,111.000000,,2013-04-14 23:43:00,
2013-04-14 19:53:00,67.0,53.0,-100.00,SSE,155,2.0,6.0,60,0.00,,,0.00,111.000000,,2013-04-14 23:53:00,
2013-04-14 20:02:00,67.0,53.0,-100.00,SSE,155,2.0,6.0,60,0.00,,,0.00,111.000000,,2013-04-15 00:02:00,
2013-04-14 20:33:00,64.0,52.0,-100.00,SE,127,2.0,4.0,66,0.00,,,-99.99,6.000000,,2013-04-15 00:33:00,
2013-04-14 20:43:00,64.0,52.0,-100.00,SE,127,2.0,4.0,66,0.00,,,-99.99,6.000000,,2013-04-15 00:43:00,
2013-04-14 20:53:00,64.0,52.0,-100.00,SE,127,2.0,4.0,66,0.00,,,-99.99,6.000000,,2013-04-15 00:53:00,
2013-04-14 21:03:00,64.0,52.0,-100.00,SE,127,2.0,4.0,66,0.00,,,-99.99,6.000000,,2013-04-15 01:03:00,
2013-04-14 21:33:00,63.0,53.0,-100.00,East,82,4.0,6.0,70,0.00,,,0.00,0.000000,,2013-04-15 01:33:00,
2013-04-14 21:43:00,63.0,53.0,-100.00,East,82,4.0,6.0,70,0.00,,,0.00,0.000000,,2013-04-15 01:43:00,
2013-04-14 21:52:00,63.0,53.0,-100.00,East,82,4.0,6.0,70,0.00,,,0.00,0.000000,,2013-04-15 01:52:00,
2013-04-14 22:03:00,63.0,53.0,-100.00,East,82,4.0,6.0,70,0.00,,,0.00,0.000000,,2013-04-15 02:03:00,
2013-04-14 22:32:00,63.0,53.0,-100.00,East,95,4.0,8.0,70,0.00,,,0.00,0.000000,,2013-04-15 02:32:00,
2013-04-14 22:42:00,63.0,53.0,-100.00,East,95,4.0,8.0,70,0.00,,,0.00,0.000000,,2013-04-15 02:42:00,
2013-04-14 22:53:00,63.0,53.0,-100.00,East,95,4.0,8.0,70,0.00,,,0.00,0.000000,,2013-04-15 02:53:00,
2013-04-14 23:03:00,63.0,53.0,-100.00,East,95,4.0,8.0,70,0.00,,,0.00,0.000000,,2013-04-15 03:03:00,
2013-04-14 23:33:00,63.0,55.0,-100.00,ESE,103,4.0,6.0,76,0.00,,,0.00,0.000000,,2013-04-15 03:33:00,
2013-04-14 23:43:00,63.0,55.0,-100.00,ESE,103,4.0,6.0,76,0.00,,,0.00,0.000000,,2013-04-15 03:43:00,
2013-04-14 23:55:00,63.0,55.0,-100.00,ESE,103,4.0,6.0,76,0.00,,,0.00,0.000000,,2013-04-15 03:55:00,